Location: Newark
(49.2191°N, 12.6671°E)
Time: 16:05:05
(UTC+00:00)

Transit 4A - Visible Passes

Search period start: 19 January 2021 00:00
Search period end: 29 January 2021 00:00
Orbit: 864 x 981 km, 66.8° (Epoch: 18 January)

Date Brightness Start Highest point End Pass type
(mag) Time Alt. Az. Time Alt. Az. Time Alt. Az.
19 Jan 10.6 01:54:53 13° ENE 01:54:53 13° ENE 01:55:36 10° E visible
19 Jan 8.0 03:38:26 69° ENE 03:38:26 69° ENE 03:44:18 10° SE visible
19 Jan 8.8 05:21:59 22° WNW 05:24:07 26° WSW 05:28:59 10° SSW visible
19 Jan 9.7 18:42:46 10° S 18:44:26 18° S 18:44:26 18° S visible
20 Jan 10.4 02:04:42 14° E 02:04:42 14° E 02:05:40 10° E visible
20 Jan 7.9 03:48:16 73° SSE 03:48:16 73° SSE 03:53:40 10° SSE visible
20 Jan 9.2 05:31:50 17° W 05:33:06 18° WSW 05:37:02 10° SW visible
20 Jan 9.2 18:51:38 10° SSW 18:54:44 29° S 18:54:44 29° S visible
21 Jan 10.4 02:14:38 14° E 02:14:38 14° E 02:15:37 10° ESE visible
21 Jan 8.2 03:58:13 52° S 03:58:13 52° S 04:02:51 10° SSE visible
21 Jan 9.6 05:41:47 12° W 05:42:02 12° W 05:44:11 10° WSW visible
21 Jan 9.4 17:17:58 10° SE 17:21:23 16° ESE 17:21:23 16° ESE visible
21 Jan 8.7 19:00:44 10° SSW 19:04:58 44° SSW 19:04:58 44° SSW visible
21 Jan 10.7 20:48:28 10° W 20:48:33 10° W 20:48:33 10° W visible
22 Jan 10.3 02:24:41 14° ESE 02:24:41 14° ESE 02:25:27 10° ESE visible
22 Jan 8.8 04:08:16 33° SSW 04:08:16 33° SSW 04:11:48 10° S visible
22 Jan 9.0 17:25:49 10° SSE 17:30:43 24° ESE 17:31:32 23° E visible
22 Jan 8.4 19:10:02 10° SW 19:15:08 58° SW 19:15:08 58° SW visible
22 Jan 10.7 20:58:30 10° W 20:58:42 11° W 20:58:42 11° W visible
23 Jan 10.4 02:34:49 11° SE 02:34:49 11° SE 02:35:06 10° SE visible
23 Jan 9.4 04:18:24 20° SSW 04:18:24 20° SSW 04:20:29 10° S visible
23 Jan 8.7 17:34:10 10° S 17:39:46 33° ESE 17:41:37 28° E visible
23 Jan 8.5 19:19:31 10° SW 19:25:11 58° WNW 19:25:11 58° WNW visible
23 Jan 10.8 21:08:40 10° WNW 21:08:46 10° WNW 21:08:46 10° WNW visible
24 Jan 9.9 04:28:37 11° SSW 04:28:37 11° SSW 04:28:50 10° SSW visible
24 Jan 8.3 17:42:52 10° S 17:48:55 46° ESE 17:51:35 30° ENE visible
24 Jan 8.8 19:29:11 10° WSW 19:35:09 47° NW 19:35:09 47° NW visible
25 Jan 8.0 17:51:49 10° SSW 17:58:07 64° ESE 18:01:26 29° NE visible
25 Jan 9.2 19:39:01 10° WSW 19:44:55 37° NW 19:45:00 37° NW visible
26 Jan 7.9 18:00:59 10° SSW 18:07:24 85° SE 18:11:11 27° NE visible
26 Jan 9.5 19:49:00 10° W 19:54:33 30° NW 19:54:44 30° NNW visible
27 Jan 9.0 16:25:43 10° SSE 16:30:54 27° ESE 16:36:04 10° NE visible
27 Jan 8.1 18:10:21 10° SW 18:16:46 73° NW 18:20:50 24° NNE visible
27 Jan 9.7 19:59:05 10° W 20:04:14 25° NNW 20:04:23 25° NNW visible
28 Jan 8.6 16:34:11 10° S 16:39:59 37° ESE 16:45:45 10° NE visible
28 Jan 8.6 18:19:55 10° SW 18:26:12 55° NW 18:30:24 21° NNE visible
28 Jan 9.9 20:09:17 10° WNW 20:13:56 21° NNW 20:13:56 21° NNW visible
